sat.trackr.live / text

‹ back to catalog

STARLINK-30712

NORAD 57935 · 2023-148A

PAYLOAD ACTIVE UNKNOWN

§ Identity

Operator
Country
US
Launch date
2023-09-25
Launch site
AFWTR
Launch vehicle
Mass (kg)
RCS (m²)

Purposes: comms

External: N2YO · Heavens-Above · Gunter

§ Orbital elements

Epoch: 2026-05-24T22:48:01.266624Z

Period
93.85 min
Inclination
53.1609°
Eccentricity
0.0001083
Mean motion
15.34389246 rev/d
Perigee alt
462.0 km
Apogee alt
463.5 km
Semi-major
6,840.9 km
B*
6.7850e-5
RAAN
29.6878°
Arg perigee
80.9731°
Mean anomaly
279.1394°
Rev number
15,010

§ Raw data

STARLINK-307121 57935U 23148A   26144.95001466  .00001916  00000+0  67850-4 0  99912 57935  53.1609  29.6878 0001083  80.9731 279.1394 15.34389246150102

JSON: /api/v1/satellites/57935 · /tle

For live sub-satellite position, see the globe view (requires WebGL).

§ Visibility from observer

Set your observer location to see the next 7 days of passes ≥ 10°. The values pass through the URL so the page stays shareable.

No JS? Fill the form by hand. The geolocation button needs JavaScript.